Regional Weather Roundup
Issued by NWS

Home | Current Version | Previous Version | Text Only | Print | Product List | Glossary Off
Versions: 1 2 3 4 5 6 7 8 9 10 11 12 13 14 15 16 17 18 19 20 21 22 23 24 25 26 27 28 29 30 31 32 33 34 35 36 37 38 39 40 41 42 43 44 45 46 47 48 49 50

000
ASUS45 KSLC 051910
RWRUT

UTAH REGIONAL WEATHER ROUNDUP
NATIONAL WEATHER SERVICE SALT LAKE CITY UT
100 PM MDT TUE MAY 05 2015

UTZ001>011-023>025-052000-

NORTHERN UTAH

CITY           SKY/WX    TMP DP  RH WIND       PRES   REMARKS
HILL AFB       PTSUNNY   63  50  62 SW8       29.84F
LOGAN          SUNNY     68  44  42 CALM      29.81F
OGDEN          CLOUDY    64  48  56 SW9       29.83F
PROVO AIRPORT  PTSUNNY   63  46  55 W7        29.85S
SALT LAKE CITY CLOUDY    63  46  54 W10       29.84F
VERNAL         CLOUDY    68  39  34 VRB3      29.81F
WENDOVER       MOSUNNY   72  39  30 SE9       29.82F
HEBER CITY       N/A    N/A N/A N/A MISG        N/A
WEST JORDAN    CLOUDY    61  52  72 S13       29.87R

$$

UTZ012>022-026-027-052000-

SOUTHERN/CENTRAL UTAH

CITY           SKY/WX    TMP DP  RH WIND       PRES   REMARKS
BLANDING       CLOUDY    50  48  94 S7        29.98F
BRYCE CANYON   LGT RAIN  46  38  73 W20G28    29.97F
CEDAR CITY     CLOUDY    56  46  69 S6        29.93F
DELTA          PTSUNNY   62  44  50 CALM      29.86F
HANKSVILLE     CLOUDY    61  46  59 CALM      29.86F
MILFORD        MOSUNNY   63  48  58 S17G23    29.88F
MOAB/CYNLANDS  PTSUNNY   60  48  64 S6        29.82F
PRICE          CLOUDY    59  43  55 VRB3      29.86F
ST GEORGE      CLOUDY    68  48  49 W7        29.90F
KANAB          PTSUNNY   61  45  55 SW12      29.95F

$$

REGIONAL REPORTS     COLORADO/ARIZONA

CITY           SKY/WX    TMP DP  RH WIND       PRES   REMARKS
CRAIG, CO      PTSUNNY   67  40  37 VRB6      29.83F
GRAND JUNCTION LGT RAIN  63  45  51 CALM      29.81F
RIFLE          CLOUDY    63  43  48 W12       29.80F
MONTROSE       CLOUDY    57  45  64 N8        29.88F
CORTEZ         LGT RAIN  50  46  86 SW3       29.94S FOG
PAGE, AZ       PTSUNNY   69  46  43 N7        29.85F
GRAND CANYON   CLOUDY    52  42  69 W12G22    30.00F
KINGMAN        MOSUNNY   72  46  39 SW15G24   29.93F
FLAGSTAFF      LGT RAIN  49  45  86 SW8       30.02F

$$

REGIONAL REPORTS    NEVADA/IDAHO/WYOMING

CITY           SKY/WX    TMP DP  RH WIND       PRES   REMARKS
LAS VEGAS, NV  MOSUNNY   79  38  22 VRB7      29.80F
ELY            LGT RAIN  60  31  33 SW8G21    29.92F
ELKO           MOSUNNY   70  35  27 SW12      29.87F
POCATELLO, ID  MOSUNNY   68  36  30 W12       29.82F
BURLEY         SUNNY     69  42  37 W15G23    29.81F
EVANSTON, WY   CLOUDY    59  41  51 W8        29.91F
ROCK SPRINGS   PTSUNNY   62  34  35 NW8       29.88F
KEMMERER       PTSUNNY   55  34  44 W10       29.92F

$$


USA.gov is the U.S. government's official web portal to all federal, state and local government web resources and services.